[[{"header":{"parameterUnit":"m.s-1","parameterCategory":1,"la1":30.2991,"la2":30.254,"lo1":-89.0895,"lo2":-89.0444,"dy":0.0017,"dx":0.0017,"nx":28,"ny":28,"refTime":"2025-09-12T09:00:00:Z","depth":0,"parameterNumber":2,"parameterNumberName":"U-component_of_WINDS"},"data":[0,0,0,0,0,0,0,0,0,0,0,0,0,0,0,0,0,0,0,0,0,0,0,0,0,0,0,0,0,0,0,0,0,0,0,0,0,0,0,0,0,0,0,0,0,0,0,0,0,0,0,0,0,0,0,0,0,0,-2.3977,-2.3977,0,-2.3922,-2.3921,-2.3921,-2.3842,-2.3841,-2.384,-2.3839,-2.3781,-2.3781,-2.3781,0,0,0,0,0,0,0,0,0,0,0,0,0,-2.4018,-2.4018,-2.3978,-2.3977,-2.3976,-2.3922,-2.3921,-2.392,-2.3843,-2.3841,-2.3839,-2.3838,-2.3781,-2.3781,-2.3781,0,0,0,0,0,0,0,0,0,0,0,0,0,-2.3985,-2.4017,-2.3978,-2.3931,-2.3926,-2.3922,-2.3921,-2.392,-2.3843,-2.3841,-2.3839,-2.3837,-2.3781,-2.3781,-2.378,-2.3818,0,0,-2.3779,-2.3779,0,0,0,0,0,0,0,0,-2.3987,-2.3984,-2.3938,-2.3934,-2.3929,-2.3887,-2.3914,-2.3886,-2.3844,-2.3875,-2.3838,-2.3836,-2.3818,-2.3814,-2.3808,-2.3815,-2.3812,-2.3779,-2.3779,-2.3779,-2.3779,0,0,0,0,0,0,0,-2.3989,-2.3986,-2.3955,-2.3938,-2.3932,-2.3913,-2.3906,-2.3908,-2.3858,-2.3872,-2.3866,-2.386,-2.3815,-2.3809,-2.3806,-2.3812,-2.3779,-2.3779,-2.3778,-2.3778,-2.3848,-2.385,0,0,0,0,0,0,-2.3999,-2.3988,-2.3957,-2.3954,-2.3954,-2.3914,-2.3906,-2.3902,-2.3858,-2.3849,-2.3862,-2.3857,-2.3811,-2.3807,-2.3804,-2.3845,-2.3779,-2.3778,-2.3778,-2.3846,-2.3849,-2.3851,0,0,0,0,0,0,-2.4,-2.3997,-2.3959,-2.3969,-2.3963,-2.3915,-2.3912,-2.3902,-2.3896,-2.3851,-2.3841,-2.3865,-2.3809,-2.3805,-2.3815,-2.3842,-2.3778,-2.3778,-2.3843,-2.3847,-2.385,-2.3929,0,0,0,0,0,0,-2.4001,-2.3997,-2.4011,-2.397,-2.3963,-2.3971,-2.3913,-2.3903,-2.3896,-2.3888,-2.3851,-2.3843,-2.3807,-2.3816,-2.3815,-2.3841,-2.3777,-2.3841,-2.3845,-2.3849,-2.3923,-2.3934,-2.3943,0,0,0,0,0,-2.4003,-2.4035,-2.4012,-2.4008,-2.3978,-2.3973,-2.3969,-2.3927,-2.3898,-2.3911,-2.3883,-2.3844,-2.384,-2.3818,-2.3816,-2.3842,-2.3839,-2.3844,-2.3848,-2.3919,-2.3932,-2.3943,0,0,0,0,0,0,-2.4078,-2.4028,-2.4002,-2.4022,-2.4003,-2.396,-2.3975,-2.3942,-2.393,-2.3924,-2.3873,-2.3865,-2.3882,-2.3863,-2.384,-2.3877,-2.3834,-2.3838,-2.3888,-2.39,-2.391,-2.3914,-2.3777,0,0,0,0,0,-2.4098,-2.4097,-2.4054,-2.4075,-2.4067,-2.4023,-2.4019,-2.3989,-2.3967,-2.3958,-2.3929,-2.391,-2.3904,-2.3901,-2.3893,-2.3921,-2.3912,-2.3938,-2.3948,-2.3956,-2.396,-2.3975,-2.3986,-2.3866,-2.3866,-2.3866,0,0,-2.4137,-2.4109,-2.4112,-2.409,-2.4071,-2.4072,-2.4016,-2.402,-2.402,-2.3958,-2.3967,-2.3946,-2.392,-2.394,-2.3947,-2.3924,-2.3992,-2.3962,-2.3969,-2.3969,-2.3981,-2.3992,-2.4003,-2.387,-2.3869,-2.3869,0,0,-2.4208,-2.4188,-2.4204,-2.4187,-2.416,-2.4131,-2.4135,-2.4098,-2.4082,-2.409,-2.4044,-2.4044,-2.4035,-2.4019,-2.401,-2.4079,-2.4044,-2.4078,-2.413,-2.4145,-2.4154,-2.4162,-2.4188,-2.4197,-2.4083,-2.4083,-2.4083,0,-2.426,-2.426,-2.4216,-2.4223,-2.4215,-2.416,-2.4176,-2.4162,-2.4134,-2.413,-2.4105,-2.4094,-2.4073,-2.4089,-2.4106,-2.41,-2.4104,-2.4082,-2.4157,-2.4164,-2.4171,-2.4195,-2.4204,-2.4087,-2.4087,-2.4087,-2.4086,0,-2.4326,-2.4327,-2.4343,-2.4318,-2.4312,-2.4324,-2.4282,-2.4282,-2.4253,-2.4227,-2.4237,-2.421,-2.4197,-2.4198,-2.417,-2.4211,-2.4198,-2.4166,-2.4122,-2.4188,-2.4209,-2.4218,-2.4094,-2.4092,-2.4091,-2.409,0,0,-2.4441,-2.4394,-2.4401,-2.4389,-2.4357,-2.4357,-2.4367,-2.4354,-2.4355,-2.4339,-2.4346,-2.4341,-2.4312,-2.4302,-2.4271,-2.4285,-2.4343,-2.4251,-2.4249,-2.4269,-2.4388,-2.4412,-2.4423,-2.4319,-2.4321,-2.4322,-2.439,0,-2.4507,-2.4521,-2.4483,-2.4507,-2.4508,-2.4457,-2.4466,-2.4447,-2.4424,-2.4422,-2.4397,-2.4394,-2.4355,-2.4349,-2.436,-2.4333,-2.4366,-2.4328,-2.4326,-2.4327,-2.4334,-2.4434,-2.4459,-2.4524,-2.4398,-2.4399,-2.44,0,-2.4584,-2.4573,-2.4597,-2.4565,-2.4564,-2.4573,-2.4559,-2.4558,-2.4537,-2.4519,-2.4509,-2.4474,-2.4483,-2.4442,-2.4453,-2.4429,-2.4426,-2.4414,-2.4415,-2.4413,-2.4367,-2.4435,-2.4544,-2.4554,-2.4413,-2.4412,-2.4411,0,-2.4667,-2.4657,-2.4671,-2.4663,-2.4626,-2.4633,-2.4618,-2.4595,-2.4591,-2.4579,-2.4576,-2.4566,-2.456,-2.4554,-2.4518,-2.4491,-2.4534,-2.4489,-2.452,-2.4521,-2.4531,-2.4531,-2.4641,-2.453,-2.453,-2.453,-2.453,0,-2.4743,-2.476,-2.4708,-2.4716,-2.4734,-2.4691,-2.471,-2.469,-2.4671,-2.4675,-2.4631,-2.4636,-2.4588,-2.4588,-2.456,-2.4575,-2.4572,-2.4559,-2.4551,-2.4563,-2.4564,-2.456,-2.4554,-2.4532,-2.4532,-2.4531,-2.4531,0,-2.4838,-2.4803,-2.4815,-2.478,-2.4771,-2.4786,-2.4756,-2.4763,-2.4738,-2.4745,-2.4743,-2.4704,-2.4703,-2.4666,-2.4656,-2.4638,-2.4664,-2.4648,-2.4671,-2.4666,-2.4699,-2.4697,-2.481,-2.4823,-2.4704,-2.4705,-2.4706,0,-2.4889,-2.4901,-2.4868,-2.4867,-2.4855,-2.4855,-2.4851,-2.481,-2.4807,-2.4786,-2.4795,-2.479,-2.4783,-2.4783,-2.4754,-2.4747,-2.4731,-2.4771,-2.4729,-2.4741,-2.4732,-2.4731,-2.4733,-2.478,-2.4781,-2.4782,-2.4783,0,-2.4983,-2.4966,-2.4961,-2.4952,-2.4948,-2.4939,-2.4926,-2.4929,-2.4884,-2.4884,-2.4881,-2.4877,-2.4868,-2.4864,-2.4852,-2.4837,-2.4803,-2.4797,-2.4804,-2.4816,-2.4829,-2.4823,-2.4695,-2.4794,-2.4793,-2.4793,-2.4792,-2.4791,-2.5057,-2.5066,-2.5045,-2.5042,-2.5028,-2.5019,-2.5024,-2.5,-2.4998,-2.4987,-2.4964,-2.4966,-2.4947,-2.4927,-2.4916,-2.4917,-2.4897,-2.4907,-2.4909,-2.4912,-2.4919,-2.4829,-2.4915,-2.4915,-2.4914,-2.4914,-2.4914,0,-2.5149,-2.5133,-2.5131,-2.5116,-2.5114,-2.5084,-2.5069,-2.507,-2.5072,-2.5057,-2.5053,-2.5051,-2.5048,-2.502,-2.5013,-2.502,-2.5005,-2.502,-2.5019,-2.5016,-2.4937,-2.4932,-2.5033,-2.5033,-2.5032,-2.5032,-2.5032,-2.5032,-2.5197,-2.5211,-2.5192,-2.5199,-2.5183,-2.5185,-2.518,-2.5171,-2.5159,-2.516,-2.5157,-2.5139,-2.5119,-2.5111,-2.5107,-2.5099,-2.5099,-2.5119,-2.5106,-2.5033,-2.5021,-2.501,-2.5005,-2.512,-2.512,-2.5185,-2.5185,-2.5186]},{"header":{"parameterUnit":"m.s-1","parameterCategory":1,"la1":30.2991,"la2":30.254,"lo1":-89.0895,"lo2":-89.0444,"dy":0.0017,"dx":0.0017,"nx":28,"ny":28,"refTime":"2025-09-12T09:00:00:Z","depth":0,"parameterNumber":3,"parameterNumberName":"V-component_of_WINDS"},"data":[0,0,0,0,0,0,0,0,0,0,0,0,0,0,0,0,0,0,0,0,0,0,0,0,0,0,0,0,0,0,0,0,0,0,0,0,0,0,0,0,0,0,0,0,0,0,0,0,0,0,0,0,0,0,0,0,0,0,1.0405,1.0406,0,1.0437,1.0437,1.0438,1.047,1.0471,1.0471,1.0472,1.0502,1.0502,1.0503,0,0,0,0,0,0,0,0,0,0,0,0,0,1.037,1.0371,1.0405,1.0406,1.0406,1.0437,1.0437,1.0438,1.047,1.0471,1.0471,1.0472,1.0502,1.0502,1.0503,0,0,0,0,0,0,0,0,0,0,0,0,0,1.0392,1.0371,1.0405,1.0426,1.0428,1.0437,1.0437,1.0438,1.047,1.0471,1.0471,1.0472,1.0502,1.0502,1.0503,1.0493,0,0,1.0504,1.0505,0,0,0,0,0,0,0,0,1.0391,1.0393,1.0423,1.0425,1.0427,1.0451,1.0436,1.0456,1.047,1.0454,1.0472,1.0472,1.0484,1.0486,1.049,1.0494,1.0495,1.0504,1.0505,1.0505,1.0505,0,0,0,0,0,0,0,1.0389,1.0392,1.0418,1.0423,1.0426,1.0433,1.0437,1.044,1.0465,1.0456,1.0458,1.0461,1.0485,1.049,1.0491,1.0496,1.0504,1.0505,1.0505,1.0506,1.0491,1.0491,0,0,0,0,0,0,1.0385,1.0391,1.0417,1.0419,1.041,1.0433,1.0437,1.0442,1.0465,1.0469,1.0461,1.0463,1.0489,1.0491,1.0493,1.0481,1.0505,1.0506,1.0506,1.0492,1.0491,1.049,0,0,0,0,0,0,1.0384,1.0387,1.0416,1.0405,1.041,1.0433,1.0438,1.0443,1.0447,1.0469,1.0473,1.0461,1.0489,1.0492,1.0492,1.0482,1.0506,1.0506,1.0493,1.0492,1.0491,1.0458,0,0,0,0,0,0,1.0383,1.0387,1.0384,1.0405,1.041,1.0415,1.0438,1.0443,1.0448,1.0451,1.047,1.0474,1.049,1.0491,1.0493,1.0484,1.0507,1.0494,1.0492,1.0491,1.046,1.0456,1.0453,0,0,0,0,0,1.0382,1.0373,1.0383,1.0386,1.0407,1.0415,1.0417,1.0436,1.0447,1.0444,1.0458,1.0473,1.0484,1.0491,1.0493,1.0484,1.0494,1.0493,1.0491,1.0462,1.0457,1.0453,0,0,0,0,0,0,1.0349,1.0376,1.0388,1.0386,1.0398,1.042,1.0416,1.0431,1.0439,1.0441,1.0464,1.0468,1.0466,1.0475,1.0483,1.0475,1.0491,1.049,1.0468,1.0464,1.046,1.0457,1.0507,0,0,0,0,0,1.0342,1.0346,1.037,1.0366,1.0371,1.0393,1.0397,1.0411,1.0423,1.0428,1.0442,1.0454,1.0459,1.0462,1.0469,1.0463,1.0466,1.0457,1.0454,1.045,1.0448,1.0444,1.044,1.0485,1.0485,1.0485,0,0,1.0326,1.0342,1.0343,1.036,1.037,1.0374,1.0397,1.04,1.0402,1.0429,1.0429,1.044,1.0454,1.0451,1.045,1.0458,1.0437,1.0448,1.0446,1.0445,1.0442,1.0437,1.0434,1.0484,1.0484,1.0484,0,0,1.03,1.0313,1.031,1.0321,1.0337,1.0351,1.035,1.0371,1.0379,1.038,1.04,1.0403,1.0413,1.0421,1.0427,1.0403,1.0417,1.0405,1.0385,1.038,1.0376,1.0373,1.0363,1.0359,1.0403,1.0403,1.0403,0,1.0278,1.0285,1.0307,1.0308,1.0314,1.034,1.0336,1.0345,1.0362,1.0365,1.0375,1.0387,1.0399,1.0397,1.0391,1.0395,1.0394,1.0402,1.0375,1.0372,1.037,1.036,1.0356,1.0402,1.0402,1.0402,1.0402,0,1.0257,1.0261,1.0257,1.0273,1.0279,1.0278,1.0299,1.0302,1.0315,1.0328,1.0329,1.0343,1.0353,1.0354,1.0367,1.0353,1.0358,1.0371,1.0388,1.0363,1.0355,1.0351,1.0399,1.04,1.04,1.0401,0,0,1.0209,1.0238,1.0235,1.0242,1.0262,1.0265,1.0265,1.0275,1.0276,1.0288,1.0287,1.0294,1.0307,1.0313,1.0328,1.0324,1.0302,1.0338,1.0338,1.0329,1.0286,1.0274,1.0269,1.0312,1.0312,1.0311,1.0284,0,1.0184,1.0186,1.0205,1.0201,1.0204,1.0228,1.0228,1.0239,1.0252,1.0255,1.0269,1.0273,1.029,1.0294,1.0292,1.0305,1.0293,1.0308,1.031,1.031,1.0303,1.0265,1.0252,1.0226,1.0281,1.028,1.028,0,1.0155,1.0164,1.016,1.0179,1.0181,1.018,1.019,1.0194,1.0207,1.0216,1.0223,1.024,1.024,1.0257,1.0257,1.0266,1.0268,1.0275,1.0274,1.0273,1.0292,1.0261,1.0218,1.0213,1.0275,1.0275,1.0276,0,1.0118,1.013,1.0128,1.0134,1.0157,1.0155,1.0164,1.0178,1.0183,1.0191,1.0194,1.0202,1.0206,1.0212,1.023,1.0241,1.0227,1.0246,1.0233,1.0232,1.0226,1.0226,1.0181,1.0232,1.0232,1.0232,1.0232,0,1.0086,1.0082,1.0112,1.011,1.0106,1.0129,1.0124,1.0136,1.0148,1.0149,1.0171,1.0171,1.0196,1.0198,1.0212,1.0208,1.0211,1.0217,1.022,1.0213,1.0212,1.0213,1.0215,1.0231,1.0231,1.0231,1.0232,0,1.0043,1.0063,1.0063,1.0084,1.009,1.0085,1.0103,1.0103,1.0117,1.0117,1.0119,1.014,1.0144,1.0163,1.0172,1.0181,1.0172,1.018,1.0167,1.0169,1.0154,1.0154,1.0106,1.01,1.0157,1.0156,1.0156,0,1.0021,1.0018,1.004,1.0042,1.005,1.0054,1.0058,1.0081,1.0084,1.0099,1.0096,1.0102,1.0108,1.0113,1.0129,1.0135,1.0142,1.0125,1.0143,1.0136,1.0139,1.0138,1.0137,1.012,1.0119,1.0119,1.0118,0,0.9978,0.9988,0.9994,1.0003,1.0007,1.0015,1.0025,1.0025,1.005,1.0053,1.0058,1.0062,1.0071,1.0076,1.0085,1.0094,1.0109,1.0113,1.011,1.0102,1.0093,1.0095,1.0154,1.0113,1.0114,1.0114,1.0115,1.0115,0.9943,0.9941,0.9956,0.9961,0.997,0.9979,0.9978,0.9993,0.9997,1.0006,1.0019,1.0022,1.0034,1.0048,1.0056,1.0057,1.0066,1.0062,1.0061,1.0059,1.0054,1.0095,1.0059,1.0059,1.006,1.006,1.006,0,0.9899,0.991,0.9915,0.9927,0.9931,0.9947,0.9958,0.996,0.9962,0.9973,0.9978,0.9983,0.9988,1.0004,1.001,1.0008,1.0015,1.0009,1.0008,1.0009,1.0047,1.0048,1.0003,1.0003,1.0003,1.0003,1.0003,1.0003,0.9877,0.9874,0.9885,0.9887,0.9898,0.99,0.9905,0.9912,0.9921,0.9925,0.9929,0.994,0.9953,0.996,0.9965,0.997,0.997,0.996,0.9967,1.0001,1.0007,1.0012,1.0013,0.9961,0.9961,0.9929,0.9928,0.9928]}]]